Location: Newark
(49.8348°N, 24.0280°E)
Time: 11:24:10
(UTC+00:00)

S-56A Canister/Altair - Pass Details

Date: 30 January 2020
Orbit: 633 x 2500 km, 38.9° (Epoch: 25 February)

Event Time Altitude Azimuth Distance (km) Brightness Sun altitude
Rises 20:04:15 0° 259° (W) 3,894 11.6 -45.6°
Enters shadow 20:06:59 - 250° (WSW) 2,923 10.8 -46.0°
Reaches altitude 10° 20:07:49 10° 247° (WSW) 2,645 - -46.1°
Maximum altitude 20:12:27 23° 195° (SSW) 1,579 - -46.7°
Drops below altitude 10° 20:16:15 10° 142° (SE) 2,119 - -47.2°
Sets 20:18:46 0° 127° (SE) 2,948 - -47.5°
